Weather Roundup
Issued by NWS Springfield, MO

Home | Current Version | Previous Version | Text Only | Print | Product List | Glossary On
Versions: 1 2 3 4 5 6 7 8 9 10 11 12 13 14 15 16 17 18 19 20 21 22 23 24 25 26 27 28 29 30 31 32 33 34 35 36 37 38 39 40 41 42 43 44 45 46 47 48 49 50
000
NZUS99 KSGF 190907
HRRSGF

HOURLY WEATHER
NATIONAL WEATHER SERVICE SPRINGFIELD MO
300 AM CST THU JAN 19 2017

......SGF CWA......

CITY           SKY/WX    TMP DP  RH WIND       PRES   REMARKS
SPRINGFIELD    CLOUDY    44  42  93 S12       29.90F
JOPLIN         CLOUDY    47  45  93 S5        29.91F
WEST PLAINS    FOG       41  41 100 E5        29.96F VSB 1
ROLLA          CLOUDY    42  42 100 SE5       29.93F
OSAGE BEACH    CLOUDY    44  42  93 SE5       29.94F
BRANSON        FOG       41  41 100 SE9       29.91F VSB 1/2

......SURROUNDING SGF CWA......

CITY           SKY/WX    TMP DP  RH WIND       PRES   REMARKS
CHANUTE        FOG       46  45  96 S7        29.89F VSB 1/4
PARSONS        CLOUDY    46  45  96 S7        29.90F FOG
COFFEYVILLE    CLOUDY    46  45  96 S7        29.90F
EMPORIA        CLOUDY    44  43  96 S10       29.85F
GROVE OK       CLOUDY    46  46 100 CALM      29.92F FOG
ROGERS AR      CLOUDY    45  44  97 CALM      29.91F FOG
SILOAM SPRINGS CLOUDY    46  45  93 SW3       29.90F
HARRISON AR    FOG       42  42 100 SE7       29.92F VSB 1/2
NEAR YELLVILLE CLOUDY    43  37  81 E3        29.92F

......KANSAS AND MISSOURI......

CITY           SKY/WX    TMP DP  RH WIND       PRES   REMARKS
KANSAS CTY INT CLOUDY    43  37  79 SE7       29.89F
DOWNTOWN KC    CLOUDY    44  41  89 E5        29.90F
COLUMBIA       LGT RAIN  43  43 100 SE7       29.94F FOG
SEDALIA        CLOUDY    47  44  90 SE5       29.93F
ST JOSEPH      CLOUDY    38  38 100 CALM      29.89F
ST LOUIS       CLOUDY    44  38  79 SE6       30.01F
SPIRIT OF STL  LGT RAIN  43  39  86 E5        30.00F
KIRKSVILLE     PTCLDY    34  33  96 E3        29.94F
WICHITA        CLOUDY    43  40  89 S13       29.82F
TOPEKA         CLOUDY    41  38  89 E5        29.88F
OLATHE         CLOUDY    41  41 100 SE3       29.89F FOG

......TENNESSEE......

CITY           SKY/WX    TMP DP  RH WIND       PRES   REMARKS
MEMPHIS        CLOUDY    54  53  97 E7        29.95F
NASHVILLE      CLOUDY    48  42  80 NE5       30.03F

......ARKANSAS.......

CITY           SKY/WX    TMP DP  RH WIND       PRES   REMARKS
FAYETTEVILLE   CLOUDY    48  48 100 CALM      29.90F
FT SMITH       CLOUDY    46  44  93 E6        29.92F FOG
LITTLE ROCK    DRZL/FOG  46  46 100 N3        29.95F VSB 1

......OKLAHOMA.......

CITY           SKY/WX    TMP DP  RH WIND       PRES   REMARKS
TULSA          CLOUDY    47  46  97 S7        29.90F
PONCA CITY     CLOUDY    48  43  82 S7        29.86F
MCALESTER      CLOUDY    49  46  90 SE5       29.91F FOG
OKLAHOMA CITY  CLOUDY    48  46  93 S14       29.86F

......IOWA............

CITY           SKY/WX    TMP DP  RH WIND       PRES   REMARKS
DES MOINES     FOG       35  35 100 SE7       29.92F VSB 1/4 WCI  29
QUAD CITIES    PTCLDY    30  28  92 NE3       29.99F FOG

......ILLINOIS........

CITY           SKY/WX    TMP DP  RH WIND       PRES   REMARKS
QUINCY         MOCLDY    36  34  92 SE8       29.98S WCI  30
CHICAGO        CLOUDY    34  34 100 SW6       30.03F FOG     WCI  29




USA.gov is the U.S. government's official web portal to all federal, state and local government web resources and services.